timestamp,surface_pressure_avg,surface_temp_avg,battery_voltage,lat,long
2019-06-12 00:00:00+00:00,201.4081,5.0,13.21,47.84626,-54.09684
2019-06-12 00:10:00+00:00,200.6214,5.0,13.05,47.84626,-54.09684
2019-06-12 00:20:00+00:00,197.4031,5.0,13.05,47.84626,-54.09684
2019-06-12 00:30:00+00:00,195.9749,5.0,13.05,47.84626,-54.09684
2019-06-12 00:40:00+00:00,196.3481,5.0,13.05,47.84626,-54.09684
2019-06-12 00:50:00+00:00,197.4048,5.0,13.05,47.84626,-54.09684
2019-06-12 01:00:00+00:00,196.3031,5.0,12.97,47.84626,-54.09684
2019-06-12 01:10:00+00:00,194.8098,5.0,12.81,47.84626,-54.09684
2019-06-12 01:20:00+00:00,196.1814,5.0,12.97,47.84626,-54.09684
2019-06-12 01:30:00+00:00,198.3514,5.01,12.97,47.84626,-54.09684
2019-06-12 01:40:00+00:00,199.4415,5.02,12.97,47.84626,-54.09684
2019-06-12 01:50:00+00:00,198.5998,5.05,12.97,47.84626,-54.09684
2019-06-12 02:00:00+00:00,200.1731,5.08,12.89,47.84626,-54.09684
2019-06-12 02:10:00+00:00,202.7081,5.09,12.81,47.84626,-54.09684
2019-06-12 02:20:00+00:00,205.5798,5.1,12.89,47.84626,-54.09684
2019-06-12 02:30:00+00:00,207.6364,5.1,12.89,47.84626,-54.09684
2019-06-12 02:40:00+00:00,211.2397,5.1,12.97,47.84626,-54.09684
2019-06-12 02:50:00+00:00,216.2114,5.1,12.97,47.84626,-54.09684
2019-06-12 03:00:00+00:00,221.3681,5.1,12.89,47.84626,-54.09684
2019-06-12 03:10:00+00:00,222.8365,5.1,12.81,47.84626,-54.09684
2019-06-12 03:20:00+00:00,226.1664,5.1,12.89,47.84626,-54.09684
2019-06-12 03:30:00+00:00,232.2448,5.1,12.89,47.84626,-54.09684
2019-06-12 03:40:00+00:00,235.9831,5.1,12.89,47.84626,-54.09684
2019-06-12 03:50:00+00:00,239.5298,5.13,12.89,47.84626,-54.09684
2019-06-12 04:00:00+00:00,243.7014,5.2,12.81,47.84626,-54.09684
2019-06-12 04:10:00+00:00,251.8297,5.26,12.73,47.84626,-54.09684
2019-06-12 04:20:00+00:00,259.0697,5.3,12.81,47.84626,-54.09684
2019-06-12 04:30:00+00:00,268.6664,5.37,12.89,47.84626,-54.09684
2019-06-12 04:40:00+00:00,275.7914,5.4,12.89,47.84626,-54.09684
2019-06-12 04:50:00+00:00,283.8664,5.4,12.89,47.84626,-54.09684
2019-06-12 05:00:00+00:00,289.9114,5.43,12.81,47.84626,-54.09684
2019-06-12 05:10:00+00:00,296.993,5.49,12.73,47.84626,-54.09684
2019-06-12 05:20:00+00:00,301.348,5.5,12.81,47.84626,-54.09684
2019-06-12 05:30:00+00:00,303.7847,5.5,12.81,47.84626,-54.09684
2019-06-12 05:40:00+00:00,308.413,5.5,12.89,47.84626,-54.09684
2019-06-12 05:50:00+00:00,315.668,5.5,12.89,47.84626,-54.09684
2019-06-12 06:00:00+00:00,321.0963,5.5,12.81,47.84626,-54.09684
2019-06-12 06:10:00+00:00,321.9464,5.5,12.73,47.84626,-54.09684
2019-06-12 06:20:00+00:00,322.053,5.5,12.81,47.84626,-54.09684
2019-06-12 06:30:00+00:00,326.023,5.5,12.81,47.84626,-54.09684
2019-06-12 06:40:00+00:00,328.0881,5.5,12.81,47.84626,-54.09684
2019-06-12 06:50:00+00:00,329.3247,5.5,12.81,47.84626,-54.09684
2019-06-12 07:00:00+00:00,330.7913,5.5,12.81,47.84626,-54.09684
2019-06-12 07:10:00+00:00,333.0015,5.5,12.73,47.84626,-54.09684
2019-06-12 07:20:00+00:00,333.0613,5.5,12.81,47.84626,-54.09684
2019-06-12 07:30:00+00:00,332.3913,5.5,12.81,47.84626,-54.09684
2019-06-12 07:40:00+00:00,332.483,5.5,12.81,47.84626,-54.09684
2019-06-12 07:50:00+00:00,331.7095,5.5,12.81,47.84626,-54.09684
2019-06-12 08:00:00+00:00,332.1962,5.52,12.73,47.84626,-54.09684
2019-06-12 08:10:00+00:00,329.9114,5.56,12.65,47.84626,-54.09684
2019-06-12 08:20:00+00:00,324.8297,5.58,12.73,47.84626,-54.09684
2019-06-12 08:30:00+00:00,321.2762,5.59,12.73,47.84626,-54.09684
2019-06-12 08:40:00+00:00,319.5646,5.6,12.81,47.84626,-54.09684
2019-06-12 08:50:00+00:00,314.6097,5.59,12.81,47.84626,-54.09684
2019-06-12 09:00:00+00:00,307.1764,5.58,12.73,47.84626,-54.09684
2019-06-12 09:10:00+00:00,305.463,5.53,12.65,47.84626,-54.09684
2019-06-12 09:20:00+00:00,301.2847,5.51,12.73,47.84626,-54.09684
2019-06-12 09:30:00+00:00,291.6597,5.53,12.81,47.84626,-54.09684
2019-06-12 09:40:00+00:00,281.1531,5.56,12.81,47.84626,-54.09684
2019-06-12 09:50:00+00:00,275.7781,5.55,12.81,47.84626,-54.09684
2019-06-12 10:00:00+00:00,267.9364,5.58,12.73,47.84626,-54.09684
2019-06-12 10:10:00+00:00,257.7448,5.59,12.73,47.84626,-54.09684
2019-06-12 10:20:00+00:00,249.4281,5.6,12.81,47.84626,-54.09684
2019-06-12 10:30:00+00:00,245.9664,5.6,12.89,47.84626,-54.09684
2019-06-12 10:40:00+00:00,242.2164,5.6,12.97,47.84626,-54.09684
2019-06-12 10:50:00+00:00,237.4498,5.6,13.05,47.84626,-54.09684
2019-06-12 11:00:00+00:00,232.7798,5.6,12.97,47.84626,-54.09684
2019-06-12 11:10:00+00:00,228.5764,5.6,12.97,47.84626,-54.09684
2019-06-12 11:20:00+00:00,224.1865,5.62,13.13,47.84626,-54.09684
2019-06-12 11:30:00+00:00,221.6248,5.67,13.21,47.84626,-54.09684
2019-06-12 11:40:00+00:00,219.5714,5.7,13.44,47.84626,-54.09684
2019-06-12 11:50:00+00:00,215.1531,5.7,13.76,47.84626,-54.09684
2019-06-12 12:00:00+00:00,211.4714,5.7,13.68,47.84626,-54.09684
2019-06-12 12:10:00+00:00,210.3865,5.7,13.68,47.84626,-54.09684
2019-06-12 12:20:00+00:00,207.9248,5.7,13.84,47.84626,-54.09684
2019-06-12 12:30:00+00:00,202.6498,5.7,13.84,47.84626,-54.09684
2019-06-12 12:40:00+00:00,200.5315,5.7,13.92,47.84626,-54.09684
2019-06-12 12:50:00+00:00,199.7247,5.77,14.08,47.84626,-54.09684
2019-06-12 13:00:00+00:00,196.2614,5.8,14.24,47.84626,-54.09684
2019-06-12 13:10:00+00:00,194.6747,5.8,15.2,47.84626,-54.09684
2019-06-12 13:20:00+00:00,197.0514,5.86,14.56,47.84626,-54.09684
2019-06-12 13:30:00+00:00,198.6664,5.9,14.32,47.84626,-54.09684
2019-06-12 13:40:00+00:00,199.1581,5.9,14.48,47.84626,-54.09684
2019-06-12 13:50:00+00:00,201.9049,5.9,14.72,47.84626,-54.09684
2019-06-12 14:00:00+00:00,204.8748,5.94,14.48,47.84626,-54.09684
2019-06-12 14:10:00+00:00,205.8081,5.99,14.32,47.84626,-54.09684
2019-06-12 14:20:00+00:00,203.5715,6.0,14.4,47.84626,-54.09684
2019-06-12 14:30:00+00:00,204.1114,6.06,14.48,47.84626,-54.09684
2019-06-12 14:40:00+00:00,207.4898,6.09,14.56,47.84626,-54.09684
2019-06-12 14:50:00+00:00,210.9116,6.1,14.48,47.84626,-54.09684
2019-06-12 15:00:00+00:00,210.9882,6.12,14.4,47.84626,-54.09684
2019-06-12 15:10:00+00:00,212.9181,6.17,14.32,47.84626,-54.09684
2019-06-12 15:20:00+00:00,217.8064,6.18,14.4,47.84626,-54.09684
2019-06-12 15:30:00+00:00,222.7848,6.18,14.32,47.84626,-54.09684
2019-06-12 15:40:00+00:00,224.6914,6.2,14.32,47.84626,-54.09684
2019-06-12 15:50:00+00:00,227.4547,6.2,14.32,47.84626,-54.09684
2019-06-12 16:00:00+00:00,235.3514,6.2,14.32,47.84626,-54.09684
2019-06-12 16:10:00+00:00,240.3015,6.2,14.4,47.84626,-54.09684
2019-06-12 16:20:00+00:00,244.5014,6.2,14.56,47.84626,-54.09684
2019-06-12 16:30:00+00:00,250.3364,6.19,14.48,47.84626,-54.09684
2019-06-12 16:40:00+00:00,256.8914,6.1,14.48,47.84626,-54.09684
2019-06-12 16:50:00+00:00,263.1431,6.1,14.48,47.84626,-54.09684
2019-06-12 17:00:00+00:00,273.6031,6.1,14.32,47.84626,-54.09684
2019-06-12 17:10:00+00:00,285.378,6.1,14.24,47.84626,-54.09684
2019-06-12 17:20:00+00:00,291.0613,6.1,14.24,47.84626,-54.09684
2019-06-12 17:30:00+00:00,295.3763,6.1,14.24,47.84626,-54.09684
2019-06-12 17:40:00+00:00,303.4514,6.1,14.24,47.84626,-54.09684
2019-06-12 17:50:00+00:00,308.088,6.16,14.24,47.84626,-54.09684
2019-06-12 18:00:00+00:00,310.4714,6.19,14.16,47.84626,-54.09684
2019-06-12 18:10:00+00:00,317.533,6.2,14.0,47.84626,-54.09684
2019-06-12 18:20:00+00:00,325.108,6.2,13.92,47.84626,-54.09684
2019-06-12 18:30:00+00:00,330.5713,6.2,13.92,47.84626,-54.09684
2019-06-12 18:40:00+00:00,330.038,6.2,13.84,47.84626,-54.09684
2019-06-12 18:50:00+00:00,333.798,6.2,13.84,47.84626,-54.09684
2019-06-12 19:00:00+00:00,336.8062,6.2,13.76,47.84626,-54.09684
2019-06-12 19:10:00+00:00,337.283,6.2,13.68,47.84626,-54.09684
2019-06-12 19:20:00+00:00,340.593,6.2,13.68,47.84626,-54.09684
2019-06-12 19:30:00+00:00,346.0129,6.2,13.6,47.84626,-54.09684
2019-06-12 19:40:00+00:00,345.903,6.2,13.6,47.84626,-54.09684
2019-06-12 19:50:00+00:00,346.8429,6.2,13.6,47.84626,-54.09684
2019-06-12 20:00:00+00:00,354.6846,6.2,13.44,47.84626,-54.09684
2019-06-12 20:10:00+00:00,354.9613,6.2,13.29,47.84626,-54.09684
2019-06-12 20:20:00+00:00,347.9562,6.2,13.37,47.84626,-54.09684
2019-06-12 20:30:00+00:00,348.153,6.2,13.29,47.84626,-54.09684
2019-06-12 20:40:00+00:00,351.4846,6.2,13.29,47.84626,-54.09684
2019-06-12 20:50:00+00:00,344.1779,6.2,13.29,47.84626,-54.09684
2019-06-12 21:00:00+00:00,339.5814,6.2,13.21,47.84626,-54.09684
2019-06-12 21:10:00+00:00,338.0596,6.2,13.05,47.84626,-54.09684
2019-06-12 21:20:00+00:00,331.363,6.2,13.05,47.84626,-54.09684
2019-06-12 21:30:00+00:00,322.7196,6.2,13.05,47.84626,-54.09684
2019-06-12 21:40:00+00:00,319.338,6.2,13.05,47.84626,-54.09684
2019-06-12 21:50:00+00:00,314.4913,6.2,13.05,47.84626,-54.09684
2019-06-12 22:00:00+00:00,304.298,6.21,12.97,47.84626,-54.09684
2019-06-12 22:10:00+00:00,295.533,6.26,12.89,47.84626,-54.09684
2019-06-12 22:20:00+00:00,287.8647,6.28,12.97,47.84626,-54.09684
2019-06-12 22:30:00+00:00,282.4914,6.25,12.97,47.84626,-54.09684
2019-06-12 22:40:00+00:00,274.0397,6.2,13.05,47.84626,-54.09684
2019-06-12 22:50:00+00:00,262.2264,6.2,13.05,47.84626,-54.09684
2019-06-12 23:00:00+00:00,255.728,6.2,12.97,47.84626,-54.09684
2019-06-12 23:10:00+00:00,250.4998,6.2,12.81,47.84626,-54.09684
2019-06-12 23:20:00+00:00,244.1914,6.2,12.89,47.84626,-54.09684
2019-06-12 23:30:00+00:00,239.0464,6.2,12.97,47.84626,-54.09684
2019-06-12 23:40:00+00:00,237.0264,6.2,12.97,47.84626,-54.09684
2019-06-12 23:50:00+00:00,230.2898,6.2,12.97,47.84626,-54.09684
